HB0RER-13 Weather Reports


time (UTC)temp
C
wind
direction
speed
KPH
gust
KPH
rain 1hr
cm
rain 24hr
cm
rain mn
cm
humidity
%
barometer
mb
20260506114017 16 219 3.2 9.7 0.00 0.00 0.00 66 1006.6
20260506112513 16 229 6.4 11.3 0.00 0.00 0.00 65 1006.2
20260506111511 16 230 4.8 11.3 0.00 0.00 0.00 67 1006.4
20260506110510 16 226 6.4 9.7 0.00 0.00 0.00 67 1006.0
20260506105507 16 231 4.8 9.7 0.00 0.00 0.00 67 1006.1
20260506104505 16 226 6.4 12.9 0.00 0.00 0.00 67 1006.2
20260506103504 16 233 6.4 11.3 0.00 0.00 0.00 67 1006.5
20260506102000 16 229 6.4 11.3 0.00 0.00 0.00 66 1006.7
20260506100959 16 229 6.4 9.7 0.00 0.00 0.00 65 1006.7
20260506095956 17 232 4.8 11.3 0.00 0.00 0.00 64 1006.8
20260506094954 17 270 3.2 6.4 0.00 0.00 0.00 66 1006.9
20260506093953 17 228 3.2 9.7 0.00 0.00 0.00 68 1006.9
20260506092950 16 235 3.2 9.7 0.00 0.00 0.00 69 1006.7
20260506091948 16 249 3.2 9.7 0.00 0.00 0.00 69 1006.8
20260506090946 15 234 3.2 6.4 0.00 0.00 0.00 71 1006.8
20260506085943 15 225 3.2 9.7 0.00 0.00 0.00 72 1006.9
20260506084941 15 206 1.6 4.8 0.00 0.00 0.00 73 1007.0
20260506083939 14 237 3.2 6.4 0.00 0.00 0.00 73 1007.0
20260506082938 14 235 4.8 9.7 0.00 0.00 0.00 74 1007.0
20260506081935 14 237 3.2 8.0 0.00 0.00 0.00 76 1007.1
20260506080933 13 241 4.8 11.3 0.00 0.00 0.00 76 1007.1
20260506072925 13 243 3.2 6.4 0.00 0.00 0.00 80 1007.0
20260506071925 12 255 3.2 6.4 0.00 0.00 0.00 81 1007.0
20260506070921 12 246 3.2 6.4 0.00 0.00 0.00 82 1007.0
20260506061912 12 247 3.2 6.4 0.00 0.00 0.00 79 1007.2
20260506060909 12 250 3.2 6.4 0.00 0.00 0.00 78 1007.2
20260506050857 10 255 3.2 6.4 0.00 0.00 0.00 80 1007.3
20260506044913 10 256 3.2 6.4 0.00 0.00 0.00 82 1007.5
20260506043911 10 260 3.2 6.4 0.00 0.00 0.00 80 1007.6
20260506042849 10 238 3.2 6.4 0.00 0.00 0.00 80 1007.7
20260506041908 10 234 1.6 4.8 0.00 0.00 0.00 79 1007.7
20260506040845 10 226 3.2 6.4 0.00 0.00 0.00 79 1007.8
20260506035844 10 230 3.2 6.4 0.00 0.00 0.00 80 1008.0
20260506034902 10 240 3.2 6.4 0.00 0.00 0.00 80 1008.1
20260506033919 10 229 3.2 6.4 0.00 0.00 0.00 79 1008.2
20260506032838 10 247 3.2 6.4 0.00 0.00 0.00 79 1008.3
20260506031835 10 242 3.2 8.0 0.00 0.00 0.00 79 1008.4
20260506030853 10 228 1.6 4.8 0.00 0.00 0.00 79 1008.4
20260506025831 10 252 3.2 8.0 0.00 0.00 0.00 79 1008.6
20260506024829 10 244 3.2 6.4 0.00 0.00 0.00 79 1008.7
20260506023827 10 252 3.2 6.4 0.00 0.00 0.00 78 1009.0
20260506022825 10 233 1.6 4.8 0.00 0.00 0.00 78 1009.2
20260506021843 10 230 1.6 4.8 0.00 0.00 0.00 78 1009.1
20260506020821 10 220 3.2 6.4 0.00 0.00 0.00 78 1009.3
20260506015819 11 246 3.2 8.0 0.00 0.00 0.00 78 1009.2
20260506014817 11 240 3.2 6.4 0.00 0.00 0.00 77 1009.2
20260506013816 11 227 1.6 4.8 0.00 0.00 0.00 77 1009.4
20260506012813 11 223 3.2 8.0 0.00 0.00 0.00 77 1009.4
20260506011811 11 235 3.2 6.4 0.00 0.00 0.00 76 1009.5
20260506010809 11 249 3.2 6.4 0.00 0.00 0.00 76 1009.5
20260506005807 11 244 3.2 6.4 0.00 0.00 0.00 76 1009.5
20260506004805 11 220 3.2 6.4 0.00 0.00 0.00 76 1009.4
20260506003803 11 231 3.2 6.4 0.00 0.00 0.00 76 1009.7
20260506002801 11 270 3.2 6.4 0.00 0.00 0.00 76 1009.9
20260506001759 11 248 3.2 6.4 0.00 0.00 0.00 75 1010.0
20260506000757 11 236 3.2 6.4 0.00 0.00 0.00 75 1010.1
20260505235755 11 240 3.2 6.4 0.00 0.00 0.00 75 1010.0
20260505234753 11 245 3.2 6.4 0.00 0.00 0.00 75 1009.9
20260505233811 11 241 3.2 4.8 0.00 0.00 0.00 74 1010.0
20260505232749 11 237 1.6 3.2 0.00 0.00 0.00 74 1010.1
20260505231747 11 225 3.2 6.4 0.00 0.00 0.00 73 1010.2
20260505230745 11 248 3.2 6.4 0.00 0.00 0.00 72 1010.1
20260505225743 11 215 1.6 6.4 0.00 0.00 0.00 71 1010.2
20260505224740 12 229 3.2 6.4 0.00 0.00 0.00 69 1010.2
20260505223740 12 221 3.2 6.4 0.00 0.00 0.00 69 1010.2
20260505222737 12 232 3.2 8.0 0.00 0.00 0.00 69 1010.2
20260505221756 12 245 3.2 6.4 0.00 0.00 0.00 69 1010.1
20260505220733 13 225 3.2 6.4 0.00 0.00 0.00 69 1010.2
20260505215731 13 226 3.2 8.0 0.00 0.00 0.00 69 1010.3
20260505214749 13 234 3.2 6.4 0.00 0.00 0.00 68 1010.4
20260505213727 13 216 1.6 8.0 0.00 0.00 0.00 68 1010.6
20260505212725 13 207 1.6 6.4 0.00 0.00 0.00 68 1010.5
20260505211723 13 225 3.2 6.4 0.00 0.00 0.00 68 1010.5
20260505210741 14 228 3.2 6.4 0.00 0.00 0.00 67 1010.4
20260505205719 14 223 3.2 6.4 0.00 0.00 0.00 67 1010.4
20260505204717 14 222 3.2 6.4 0.00 0.00 0.00 67 1010.3
20260505203715 14 216 3.2 6.4 0.00 0.00 0.00 67 1010.2
20260505202714 14 225 3.2 8.0 0.00 0.00 0.00 67 1010.2
20260505201711 15 223 3.2 8.0 0.00 0.00 0.00 66 1010.0
20260505200709 15 203 3.2 6.4 0.00 0.00 0.00 66 1010.0
20260505195707 15 215 3.2 8.0 0.00 0.00 0.00 67 1009.9
20260505194705 15 237 4.8 9.7 0.00 0.00 0.00 68 1009.8
20260505193703 15 225 3.2 6.4 0.00 0.00 0.00 67 1009.7
20260505192702 15 203 3.2 6.4 0.00 0.00 0.00 67 1009.6
20260505191719 16 128 3.2 9.7 0.00 0.00 0.00 64 1009.4
20260505190658 16 220 4.8 9.7 0.00 0.00 0.00 66 1009.2
20260505185655 16 64 3.2 4.8 0.00 0.00 0.00 66 1009.1
20260505184653 16 225 4.8 11.3 0.00 0.00 0.00 69 1009.0
20260505183651 16 90 3.2 6.4 0.00 0.00 0.00 70 1009.1
20260505182649 16 90 3.2 6.4 0.00 0.00 0.00 72 1009.1
20260505181707 16 90 3.2 6.4 0.00 0.00 0.00 72 1009.1
20260505180645 16 205 3.2 6.4 0.00 0.00 0.00 73 1008.9
20260505175724 16 219 4.8 11.3 0.00 0.00 0.00 73 1008.9
20260505174701 16 213 4.8 9.7 0.00 0.00 0.00 72 1008.6
20260505173639 16 217 4.8 9.7 0.00 0.00 0.00 72 1008.5
20260505172636 16 222 4.8 8.0 0.00 0.00 0.00 72 1008.3
20260505171635 16 218 4.8 11.3 0.00 0.00 0.00 71 1008.2
20260505170633 16 225 4.8 9.7 0.00 0.00 0.00 71 1008.1
20260505165632 16 220 6.4 11.3 0.00 0.00 0.00 71 1008.1
20260505164629 17 215 4.8 11.3 0.00 0.00 0.00 71 1008.0
20260505163628 17 220 6.4 11.3 0.00 0.00 0.00 71 1007.9
20260505162625 17 225 6.4 11.3 0.00 0.00 0.00 70 1007.8
20260505161623 17 219 6.4 11.3 0.00 0.00 0.00 69 1007.8
20260505160621 17 220 6.4 14.5 0.00 0.00 0.00 69 1007.8
20260505152634 17 215 4.8 12.9 0.00 0.00 0.00 67 1007.5
20260505151611 17 229 6.4 12.9 0.00 0.00 0.00 69 1007.6
20260505150609 17 225 6.4 12.9 0.00 0.00 0.00 69 1007.5
20260505140558 17 225 6.4 17.7 0.00 0.00 0.00 68 1007.6
20260505124541 17 237 6.4 16.1 0.00 0.00 0.00 68 1008.2
20260505123540 17 230 4.8 11.3 0.00 0.00 0.00 70 1008.4
20260505122537 16 236 4.8 11.3 0.00 0.00 0.00 70 1008.4
20260505121555 16 239 4.8 11.3 0.00 0.00 0.00 72 1008.5
20260505120533 16 237 4.8 9.7 0.00 0.00 0.00 73 1008.7
20260505115532 16 233 6.4 14.5 0.00 0.00 0.00 73 1008.7